When you browse on this site, cookies collect data to enhance your experience and personalize the content and advertising you see.
Visit our Privacy Policy to learn more. By continuing to use the site, you agree to this use of cookies and data.
  • In Romania
  • List of Countries
  • For 7 days
  • Water Temperature
  • Satellite Maps
  • Weather Map
  • Weather Widgets
  • user-avatar
    Login

    Hourly Weather Arneburg

    Today, 18 April, Thursday

    Time Temperature Precipitation Wind Pressure Humidity
    00:00 +8°C° 0 mm 3 mps 768 mmHg 76%
    01:00 +7°C° 0 mm 3 mps 769 mmHg 78%
    02:00 +7°C° 0 mm 3 mps 769 mmHg 78%
    03:00 +7°C° 0 mm 2 mps 769 mmHg 79%
    04:00 +6°C° 0 mm 2 mps 769 mmHg 79%
    05:00 +7°C° 0 mm 2 mps 769 mmHg 77%
    06:00 +8°C° 0 mm 2 mps 769 mmHg 74%
    07:00 +9°C° 0 mm 2 mps 770 mmHg 72%
    08:00 +11°C° 0 mm 3 mps 770 mmHg 67%
    09:00 +14°C° 0 mm 3 mps 770 mmHg 61%
    10:00 +17°C° 0 mm 3 mps 770 mmHg 56%
    11:00 +18°C° 0 mm 4 mps 770 mmHg 51%
    12:00 +19°C° 0 mm 4 mps 770 mmHg 46%
    13:00 +20°C° 0 mm 5 mps 769 mmHg 42%
    14:00 +20°C° 0 mm 5 mps 769 mmHg 42%
    15:00 +20°C° 0 mm 4 mps 769 mmHg 43%
    16:00 +20°C° 0 mm 4 mps 769 mmHg 44%
    17:00 +18°C° 0 mm 4 mps 769 mmHg 51%
    18:00 +17°C° 0 mm 3 mps 769 mmHg 57%
    19:00 +14°C° 0 mm 3 mps 770 mmHg 64%
    20:00 +13°C° 0 mm 3 mps 770 mmHg 67%
    21:00 +12°C° 0 mm 3 mps 770 mmHg 69%
    22:00 +10°C° 0 mm 3 mps 771 mmHg 72%
    23:00 +10°C° 0 mm 3 mps 771 mmHg 74%

    Tomorrow, 19 April, Friday

    Time Temperature Precipitation Wind Pressure Humidity
    00:00 +9°C° 0 mm 3 mps 771 mmHg 75%
    01:00 +9°C° 0 mm 3 mps 772 mmHg 76%
    02:00 +9°C° 0 mm 3 mps 772 mmHg 77%
    03:00 +8°C° 0 mm 3 mps 772 mmHg 78%
    04:00 +8°C° 0 mm 3 mps 772 mmHg 78%
    05:00 +9°C° 0 mm 3 mps 772 mmHg 76%
    06:00 +10°C° 0 mm 3 mps 772 mmHg 74%
    07:00 +11°C° 0 mm 3 mps 772 mmHg 71%
    08:00 +13°C° 0 mm 3 mps 772 mmHg 65%
    09:00 +15°C° 0 mm 4 mps 772 mmHg 59%
    10:00 +18°C° 0 mm 4 mps 772 mmHg 53%
    11:00 +19°C° 0 mm 4 mps 772 mmHg 50%
    12:00 +20°C° 0 mm 4 mps 772 mmHg 46%
    13:00 +21°C° 0 mm 4 mps 772 mmHg 43%
    14:00 +21°C° 0 mm 4 mps 772 mmHg 44%
    15:00 +21°C° 0 mm 4 mps 771 mmHg 45%
    16:00 +21°C° 0 mm 4 mps 771 mmHg 45%
    17:00 +19°C° 0 mm 4 mps 771 mmHg 52%
    18:00 +17°C° 0 mm 3 mps 771 mmHg 58%
    19:00 +16°C° 0 mm 3 mps 771 mmHg 65%
    20:00 +13°C° 0 mm 3 mps 772 mmHg 62%
    21:00 +12°C° 0 mm 3 mps 772 mmHg 60%
    22:00 +10°C° 0 mm 3 mps 772 mmHg 58%
    23:00 +9°C° 0 mm 3 mps 772 mmHg 58%

    Day after tomorrow, 20 April, Saturday

    Time Temperature Precipitation Wind Pressure Humidity
    00:00 +8°C° 0 mm 3 mps 772 mmHg 59%
    01:00 +8°C° 0 mm 2 mps 772 mmHg 59%
    02:00 +7°C° 0 mm 2 mps 772 mmHg 61%
    03:00 +7°C° 0 mm 2 mps 772 mmHg 62%
    04:00 +6°C° 0 mm 2 mps 772 mmHg 63%
    05:00 +7°C° 0 mm 2 mps 772 mmHg 63%
    06:00 +8°C° 0 mm 2 mps 772 mmHg 64%
    07:00 +8°C° 0 mm 2 mps 772 mmHg 64%
    08:00 +12°C° 0 mm 2 mps 772 mmHg 60%
    09:00 +14°C° 0 mm 2 mps 771 mmHg 55%
    10:00 +16°C° 0 mm 2 mps 771 mmHg 50%
    11:00 +17°C° 0 mm 2 mps 771 mmHg 47%
    12:00 +18°C° 0 mm 2 mps 771 mmHg 43%
    13:00 +19°C° 0 mm 2 mps 771 mmHg 40%
    14:00 +20°C° 0 mm 2 mps 770 mmHg 40%
    15:00 +20°C° 0 mm 2 mps 770 mmHg 39%
    16:00 +20°C° 0 mm 2 mps 769 mmHg 39%
    17:00 +18°C° 0 mm 2 mps 769 mmHg 47%
    18:00 +16°C° 0 mm 2 mps 769 mmHg 56%
    19:00 +14°C° 0 mm 2 mps 769 mmHg 64%
    20:00 +12°C° 0 mm 3 mps 769 mmHg 65%
    21:00 +11°C° 0 mm 3 mps 769 mmHg 66%
    22:00 +9°C° 0 mm 3 mps 769 mmHg 67%
    23:00 +8°C° 0 mm 3 mps 769 mmHg 70%

    21 April, Sunday

    Time Temperature Precipitation Wind Pressure Humidity
    00:00 +8°C° 0 mm 2 mps 769 mmHg 72%
    01:00 +7°C° 0 mm 2 mps 769 mmHg 75%
    02:00 +7°C° 0 mm 2 mps 768 mmHg 77%
    03:00 +6°C° 0 mm 2 mps 768 mmHg 79%
    04:00 +6°C° 0 mm 2 mps 768 mmHg 81%
    05:00 +7°C° 0 mm 2 mps 768 mmHg 78%
    06:00 +9°C° 0 mm 1 mps 768 mmHg 75%
    07:00 +10°C° 0 mm 1 mps 768 mmHg 72%
    08:00 +12°C° 0 mm 1 mps 767 mmHg 64%
    09:00 +15°C° 0 mm 1 mps 767 mmHg 57%
    10:00 +18°C° 0 mm 1 mps 767 mmHg 49%
    11:00 +19°C° 0 mm 1 mps 767 mmHg 45%
    12:00 +20°C° 0 mm 1 mps 766 mmHg 41%
    13:00 +20°C° 0 mm 0 mps 766 mmHg 37%
    14:00 +21°C° 0 mm 1 mps 765 mmHg 36%
    15:00 +21°C° 0 mm 1 mps 765 mmHg 36%
    16:00 +21°C° 0 mm 1 mps 764 mmHg 36%
    17:00 +19°C° 0 mm 1 mps 764 mmHg 42%
    18:00 +18°C° 0 mm 1 mps 764 mmHg 48%
    19:00 +15°C° 0 mm 1 mps 764 mmHg 54%
    20:00 +14°C° 0 mm 2 mps 764 mmHg 55%
    21:00 +13°C° 0 mm 2 mps 764 mmHg 56%
    22:00 +10°C° 0 mm 2 mps 764 mmHg 58%
    23:00 +10°C° 0 mm 2 mps 764 mmHg 61%

    22 April, Monday

    Time Temperature Precipitation Wind Pressure Humidity
    00:00 +9°C° 0 mm 2 mps 764 mmHg 64%
    01:00 +9°C° 0 mm 2 mps 764 mmHg 68%
    02:00 +8°C° 0 mm 2 mps 763 mmHg 70%
    03:00 +8°C° 0 mm 2 mps 763 mmHg 72%
    04:00 +7°C° 0 mm 2 mps 763 mmHg 74%
    05:00 +8°C° 0 mm 2 mps 763 mmHg 73%
    06:00 +9°C° 0 mm 2 mps 763 mmHg 72%
    07:00 +10°C° 0 mm 2 mps 762 mmHg 70%
    08:00 +13°C° 0 mm 2 mps 762 mmHg 64%
    09:00 +14°C° 0 mm 3 mps 762 mmHg 58%
    10:00 +18°C° 0 mm 3 mps 762 mmHg 52%
    11:00 +18°C° 0 mm 3 mps 762 mmHg 49%
    12:00 +19°C° 0 mm 3 mps 761 mmHg 45%
    13:00 +20°C° 0 mm 3 mps 761 mmHg 42%
    14:00 +20°C° 0 mm 4 mps 761 mmHg 42%
    15:00 +20°C° 0 mm 4 mps 760 mmHg 41%
    16:00 +20°C° 0 mm 4 mps 760 mmHg 41%
    17:00 +18°C° 0 mm 4 mps 760 mmHg 46%
    18:00 +16°C° 0 mm 3 mps 760 mmHg 52%
    19:00 +14°C° 0 mm 3 mps 760 mmHg 57%
    20:00 +13°C° 0 mm 3 mps 760 mmHg 57%
    21:00 +12°C° 0 mm 4 mps 760 mmHg 58%
    22:00 +11°C° 0 mm 4 mps 760 mmHg 58%
    23:00 +11°C° 0 mm 4 mps 760 mmHg 61%

    23 April, Tuesday

    Time Temperature Precipitation Wind Pressure Humidity
    00:00 +10°C° 0 mm 4 mps 760 mmHg 63%
    01:00 +10°C° 0 mm 4 mps 760 mmHg 66%
    02:00 +8°C° 0 mm 4 mps 760 mmHg 69%
    03:00 +8°C° 0 mm 4 mps 759 mmHg 73%
    04:00 +8°C° 0 mm 5 mps 759 mmHg 76%
    05:00 +8°C° 0 mm 5 mps 759 mmHg 75%
    06:00 +9°C° 0 mm 5 mps 759 mmHg 73%
    07:00 +10°C° 0 mm 6 mps 759 mmHg 72%
    08:00 +11°C° 0 mm 6 mps 759 mmHg 68%
    09:00 +14°C° 0 mm 7 mps 758 mmHg 63%
    10:00 +15°C° 0 mm 7 mps 758 mmHg 59%
    11:00 +16°C° 0 mm 7 mps 758 mmHg 56%
    12:00 +17°C° 0 mm 7 mps 757 mmHg 52%
    13:00 +18°C° 0 mm 7 mps 757 mmHg 49%
    14:00 +17°C° 0.3 mm 7 mps 756 mmHg 52%
    15:00 +17°C° 0.3 mm 6 mps 756 mmHg 56%
    16:00 +16°C° 0.3 mm 6 mps 756 mmHg 60%
    17:00 +15°C° 0.2 mm 5 mps 755 mmHg 69%
    18:00 +13°C° 0.2 mm 5 mps 755 mmHg 78%
    19:00 +12°C° 0.2 mm 4 mps 755 mmHg 87%
    20:00 +12°C° 0.2 mm 4 mps 755 mmHg 89%
    21:00 +11°C° 0.2 mm 3 mps 754 mmHg 92%
    22:00 +11°C° 0.2 mm 3 mps 754 mmHg 94%
    23:00 +12°C° 0.2 mm 2 mps 754 mmHg 95%
    Show more